C/2016 C1 ( PanSTARRS )

Japanese version
Home page
Updated on May 21, 2018

---------------------------------------------------------------------

* Profile

Discovery Date February 12, 2016
Magnitude 19.9 mag
Discoverer Pan-STARRS 1 telescope (Haleakala)

* Pictures

* Orbital Elements

Epoch 2016 Feb. 22.0 TT = JDT 2457440.5
T 2016 Feb. 16.40932 TT                                 MPCW
q   8.4594021            (2000.0)            P               Q
z  -0.0005814      Peri.  328.57089     -0.86189426     -0.50643025
 +/-0.0000014      Node   181.78102     +0.41414606     -0.73239057
e   1.0049187      Incl.   56.17870     -0.29261123     +0.45511806
From 207 observations 2016 Feb. 12-2018 Mar. 19, mean residual 0".5.

* Magnitudes Graph

        m1 = -5.0 + 5 log d + 20 log r

---------------------------------------------------------------------

The orbital elements are published on M.P.E.C. 2018-F152.
The magnitudes graphs are made with Comet for Windows.

---------------------------------------------------------------------

Copyright(C) Seiichi Yoshida (comet@aerith.net). All rights reserved.